Tracking 31027 objects as of 19-Jul-2025
HD Live streaming from Space Station
objects crossing your sky now

COSMOS 1538

Track COSMOS 1538 now!
10-day predictions
COSMOS 1538 is classified as:


NORAD ID: 14759
Int'l Code: 1984-019A
Perigee: 769.9 km
Apogee: 798.6 km
Inclination: 74.0 °
Period: 100.4 minutes
Semi major axis: 7155 km
RCS: 2.0376 m2 (large)
Launch date: February 21, 1984
Source: Commonwealth of Independent States (former USSR) (CIS)
Launch site: PLESETSK MISSILE AND SPACE COMPLEX (PKMTR)
Your satellite tracking list
COSMOS 2251 DEB
Track 1 satellite(s)




NASA's NSSDC Master Catalog

Two Line Element Set (TLE):
1 14759U 84019A   25199.38938998  .00000106  00000-0  47008-4 0  9991
2 14759  74.0388 170.4160 0020096  38.0894 322.1673 14.34388286165100
Source of the keplerian elements: AFSPC